Regional Weather Roundup
Issued by NWS Little Rock, AR

Home | Current Version | Previous Version | Graphics & Text | Print | Product List | Glossary On
Versions: 1 2 3 4 5 6 7 8 9 10 11 12 13 14 15 16 17 18 19 20 21 22 23 24 25 26 27 28 29 30 31 32 33 34 35 36 37 38 39 40 41 42 43 44 45 46 47 48 49 50
000
ASUS44 KLZK 312305
RWRLZK

WEATHER ROUNDUP FOR ARKANSAS
NATIONAL WEATHER SERVICE LITTLE ROCK AR
600 PM CDT SUN AUG 31 2014

NOTE: "FAIR" INDICATES FEW OR NO CLOUDS BELOW 12,000 FEET WITH NO
SIGNIFICANT WEATHER AND/OR OBSTRUCTIONS TO VISIBILITY.

ARZ001-003-010-029-010000-
NORTHWEST ARKANSAS

CITY           SKY/WX    TMP DP  RH WIND       PRES   REMARKS
FAYETTEVILLE   MOSUNNY   86  70  58 S13G21    29.92F HX  90
FORT SMITH     MOSUNNY   92  69  47 S13       29.88F HX  97
HARRISON       SUNNY     85  69  58 S12G18    29.95S HX  89
BENTONVILLE    MOSUNNY   90  66  45 S13       29.93S HX  92
ROGERS         CLOUDY    88  67  49 SE13      29.92F HX  91
HIGHFILL       SUNNY     89  67  47 S16G23    29.91F HX  92
SPRINGDALE     MOSUNNY   86  70  58 S15       29.94F HX  90
$$

ARZ004-005-016-010000-
NORTH CENTRAL ARKANSAS

CITY           SKY/WX    TMP DP  RH WIND       PRES   REMARKS
BATESVILLE     MOSUNNY   88  72  58 S8        29.96S HX  94
FLIPPIN        SUNNY     88  64  45 S5        29.93S HX  89
MTN HOME       SUNNY     87  68  52 S10       29.93S HX  90
$$

ARZ040-041-010000-
WEST CENTRAL ARKANSAS

CITY           SKY/WX    TMP DP  RH WIND       PRES   REMARKS
MENA           MOSUNNY   88  73  62 CALM      29.96S HX  96
MOUNT IDA      SUNNY     85  73  67 MISG      29.94F HX  91
$$

ARZ009-017-025-026-028-010000-
NORTHEAST ARKANSAS

CITY           SKY/WX    TMP DP  RH WIND       PRES   REMARKS
CORNING        LGT RAIN  86  73  66 S14       29.95S HX  93
JONESBORO      SUNNY     87  73  62 SW10      29.96S HX  94
NEWPORT        SUNNY     87  74  65 SW15      29.97S HX  95
WALNUT RIDGE   SUNNY     86  70  58 S18       29.93F HX  90
BLYTHEVILLE    MOSUNNY   84  74  71 S9        29.98S HX  91
$$

ARZ022-023-033-042-044-010000-
CENTRAL ARKANSAS

CITY           SKY/WX    TMP DP  RH WIND       PRES   REMARKS
LITTLE ROCK    MOSUNNY   86  72  62 S7        29.97F HX  92
N LITTLE ROCK  MOSUNNY   85  74  70 S9        29.97F HX  93
JACKSONVILLE   MOSUNNY   86  73  65 S9        29.97F HX  94
SEARCY         MOSUNNY   85  74  69 MISG      29.98S HX  92
HOT SPRINGS    SUNNY     86  72  62 S6        29.97F HX  92
RUSSELLVILLE   SUNNY     86  72  62 S6        29.93F HX  92
CLINTON        FAIR      84  75  74 SE8       29.96S HAZE    HX  92
$$

ARZ036-010000-
EAST ARKANSAS

CITY           SKY/WX    TMP DP  RH WIND       PRES   REMARKS
WEST MEMPHIS   SUNNY     85  74  69 SW7       29.98S HX  92
$$

ARZ050-053-066-070-073-010000-
SOUTHWEST ARKANSAS

CITY           SKY/WX    TMP DP  RH WIND       PRES   REMARKS
ARKADELPHIA    FAIR      89  75  63 S5        29.96S HX  98
CAMDEN         PTSUNNY   77  73  88 S6        29.98R
TEXARKANA      PTSUNNY   88  73  61 SE9       29.93S HX  95
EL DORADO      PTSUNNY   80  74  81 S6        29.99F HX  85
DE QUEEN       SUNNY     90  71  53 VRB7      29.90F HX  96
$$

ARZ056-057-069-010000-
SOUTHEAST ARKANSAS

CITY           SKY/WX    TMP DP  RH WIND       PRES   REMARKS
PINE BLUFF     MOSUNNY   86  73  65 S9        29.98S HX  93
STUTTGART      MOSUNNY   88  72  58 S9        29.99S HX  94
MONTICELLO     PTSUNNY   77  71  82 SW7       30.01R

$$





USA.gov is the U.S. government's official web portal to all federal, state and local government web resources and services.